User: anonymous   Login
Location: Chuathbaluk
(61.5726°N, 159.2454°W)
Time: 01:00:51
(UTC+00:00)
Language:

Oscar 19 - Orbit

View from above orbital plane
View from above orbital plane
View from above satellite
View from above satellite

Ground track
Ground track

The orbit data is extracted from the following two-line orbital elements,

1 20442U 90005G   21023.81105231  .00000005  00000-0  18494-4 0  9990
2 20442  98.7225 338.1179 0010945 222.9095 137.1235 14.32974210620178
Epoch (UTC): 23 January 2021 19:27:54
Eccentricity: 0.0010945
inclination: 98.7225°
perigee height: 774 km
apogee height: 789 km
right ascension of ascending node: 338.1179°
argument of perigee: 222.9095°
revolutions per day: 14.32974210
mean anomaly at epoch: 137.1235°
orbit number at epoch: 62017

The dashed part of the orbit path shows where the satellite is in the earth's shadow,  

DLR